Regional Weather Roundup
Issued by NWS Jackson, KY

Home | Current Version | Previous Version | Text Only | Print | Product List | Glossary Off
Versions: 1 2 3 4 5 6 7 8 9 10 11 12 13 14 15 16 17 18 19 20 21 22 23 24 25 26 27 28 29 30 31 32 33 34 35 36 37 38 39 40 41 42 43 44 45 46 47 48 49 50

000
ASUS43 KJKL 310510
RWRJKL

EAST KENTUCKY HOURLY WEATHER ROUNDUP
NATIONAL WEATHER SERVICE JACKSON KY
100 AM EDT MON AUG 31 2015

NOTE: "FAIR" INDICATES FEW OR NO CLOUDS BELOW 12,000 FEET WITH
NO SIGNIFICANT WEATHER AND/OR OBSTRUCTIONS TO VISIBILITY.

* THESE REPORTS ARE NOT UNDER NWS QUALITY CONTROL AND MAY NOT
  REPORT WEATHER SUCH AS PRECIPITATION AND FOG.

KYZ079-080-083-085-087-088-110-112-115-119-120-310600
...EASTERN KENTUCKY...

CITY           SKY/WX    TMP DP  RH WIND       PRES   REMARKS
JACKSON        CLOUDY    71  64  78 CALM      30.14R
LONDON         MOCLDY    70  65  84 CALM      30.13S
SOMERSET*      MOCLDY    66  66 100 CALM      30.13S
MONTICELLO*    PTCLDY    64  64 100 CALM      30.15R
MIDDLESBORO*   CLOUDY    68  68  99 CALM      30.14S
HAZARD APT*    PTCLDY    68  68 100 CALM      30.13S
BLACK MTN*       N/A     61  59  94 CALM        N/A
PIKEVILLE APT* CLEAR     70  66  88 CALM      30.14S
BIG SANDY*     CLOUDY    69  67  93 CALM      30.13S
MOREHEAD APT*  CLOUDY    68  66  94 CALM      30.14S
$$

KYZ035-036-041-042-044-050-067-078-099-310600
...CENTRAL KENTUCKY...

CITY           SKY/WX    TMP DP  RH WIND       PRES   REMARKS
MT STERLING*   MOCLDY    64  64 100 CALM      30.13S
FLEMING/MASON* CLEAR     70  64  83 S3        30.12F
DANVILLE*      PTCLDY    64  63  94 CALM      30.13S
RICHMOND*      PTCLDY    66  63  88 CALM      30.11F
LEXINGTON      MOCLDY    72  65  78 S5        30.11S
FRANKFORT      PTCLDY    71  66  84 CALM      30.09S
$$

KYZ091>093-OHZ055-061-077-WVZ005-015-034-035-042-310600
...SOUTHERN OHIO/WEST VIRGINIA...

CITY           SKY/WX    TMP DP  RH WIND       PRES   REMARKS
COVINGTON      PTCLDY    70  67  90 S5        30.09S
COLUMBUS       PTCLDY    71  66  84 CALM      30.09R
DAYTON         PTCLDY    71  65  81 S7        30.10S
WILMINGTON     CLEAR     67  64  90 S5        30.10R
HUNTINGTON     MOCLDY    68  66  93 CALM      30.10F
CHARLESTON     MOCLDY    68  66  93 SE3       30.12S FOG
PINEVILLE*     CLOUDY    67  67 100 MISG      30.21F FOG
BECKLEY        CLOUDY    68  60  75 SE6       30.20S
BLUEFIELD      CLOUDY    69  59  70 CALM      30.22S
$$

VAZ002-007-008-TNZ017-027-036-066-071-310600
...SOUTHWEST VIRGINIA/EAST TENNESSEE...

CITY           SKY/WX    TMP DP  RH WIND       PRES   REMARKS
WISE*          CLOUDY    66  57  72 S6        30.21F
JONESVILLE*    CLOUDY    70  57  64 CALM      30.17S
ABINGDON*      CLOUDY    69  62  78 CALM      30.18S
BRISTOL        CLOUDY    68  63  84 CALM      30.15F
KNOXVILLE      CLOUDY    70  64  81 CALM      30.10S
OAK RIDGE      CLOUDY    73  67  81 CALM      30.13R
CROSSVILLE     PTCLDY    70  64  81 CALM      30.16S
NASHVILLE      MOCLDY    70  65  84 CALM      30.10S
$$

...KEY TO REMARKS...
VSB - VISIBILITY IN MILES
WCI - WIND CHILL INDEX
HX  - HEAT INDEX

$$



USA.gov is the U.S. government's official web portal to all federal, state and local government web resources and services.